Temp
-9 -9 -10 -10 -11 -11 -11 -12 -12 -12 -12 -13 -14 -15 -15 -16 -16 -17 -17 -18 -18 -19 -19 -19 -19 -19 -19 -20 -20 -21 -21 -22 -22 -22 -23 -23 -23 -23 -23 -23 -22 -23 -22 -22 -22 -22 -22 -22 -22 -22 -22 -22 -22 -22 -23 -22 -22 -22 -21 -20 -19 -18 -18
-9 -10 -10 -11 -11 -11 -12 -12 -12 -12 -13 -14 -14 -15 -15 -16 -16 -17 -18 -18 -18 -19 -19 -19 -20 -19 -20 -20 -21 -21 -21 -22 -22 -22 -23 -23 -23 -23 -23 -23 -23 -23 -23 -23 -23 -22 -22 -22 -22 -22 -22 -22 -22 -22 -23 -23 -23 -23 -22 -22 -20 -19 -18
-10 -10 -11 -11 -11 -12 -12 -12 -12 -13 -13 -14 -15 -15 -16 -16 -17 -17 -18 -18 -18 -19 -19 -20 -20 -20 -20 -21 -21 -21 -21 -22 -22 -23 -23 -23 -23 -23 -23 -23 -23 -23 -23 -23 -23 -23 -23 -22 -22 -22 -22 -22 -22 -22 -23 -23 -23 -23 -23 -22 -21 -20 -19
-10 -10 -11 -11 -11 -12 -12 -12 -12 -13 -14 -14 -15 -16 -16 -17 -17 -18 -18 -18 -18 -19 -19 -20 -20 -20 -21 -21 -22 -22 -22 -22 -23 -23 -23 -23 -23 -23 -24 -23 -23 -23 -23 -23 -24 -23 -23 -23 -23 -23 -23 -23 -23 -23 -23 -23 -23 -23 -23 -23 -23 -21 -20
-10 -11 -11 -11 -12 -12 -12 -12 -13 -13 -14 -15 -15 -16 -16 -17 -17 -18 -18 -18 -19 -19 -19 -20 -20 -21 -21 -21 -22 -22 -22 -22 -22 -23 -23 -23 -24 -24 -24 -24 -24 -24 -24 -24 -24 -24 -23 -23 -23 -23 -23 -23 -23 -23 -23 -23 -23 -23 -23 -23 -23 -22 -20
-11 -11 -11 -12 -12 -12 -12 -13 -13 -14 -15 -15 -16 -16 -17 -17 -17 -18 -18 -18 -19 -19 -19 -20 -20 -20 -21 -21 -22 -22 -22 -22 -22 -23 -23 -23 -24 -24 -24 -24 -24 -24 -24 -24 -24 -24 -24 -24 -24 -24 -23 -23 -23 -23 -23 -23 -23 -23 -23 -24 -23 -23 -22
-11 -11 -12 -12 -12 -13 -13 -13 -14 -14 -15 -15 -16 -17 -17 -17 -18 -18 -18 -18 -19 -19 -19 -20 -20 -20 -21 -21 -21 -22 -22 -22 -22 -23 -23 -23 -23 -24 -24 -24 -24 -24 -24 -24 -24 -24 -24 -24 -24 -24 -24 -23 -23 -23 -23 -23 -24 -23 -23 -23 -23 -23 -23
-11 -12 -12 -12 -13 -13 -13 -13 -14 -15 -15 -16 -16 -17 -17 -17 -18 -18 -19 -19 -19 -19 -19 -20 -20 -21 -21 -21 -21 -21 -22 -22 -22 -22 -23 -23 -23 -23 -23 -23 -24 -24 -24 -24 -24 -24 -24 -24 -24 -24 -24 -24 -24 -24 -24 -23 -23 -23 -23 -23 -23 -23 -23
-12 -12 -12 -13 -13 -13 -13 -14 -14 -15 -15 -16 -17 -17 -17 -18 -18 -19 -19 -19 -19 -19 -20 -20 -20 -21 -21 -21 -21 -21 -22 -22 -22 -22 -23 -23 -23 -23 -23 -23 -24 -24 -24 -24 -25 -25 -24 -24 -24 -24 -24 -24 -24 -24 -23 -23 -23 -23 -23 -23 -23 -23 -23
-12 -13 -13 -13 -13 -13 -14 -14 -15 -15 -16 -17 -17 -17 -18 -18 -18 -19 -19 -19 -19 -19 -20 -20 -20 -21 -21 -21 -21 -21 -22 -22 -22 -22 -22 -23 -23 -23 -23 -23 -24 -24 -24 -24 -25 -25 -25 -25 -24 -24 -24 -24 -24 -24 -24 -24 -24 -24 -24 -23 -23 -23 -23
-12 -13 -13 -13 -13 -14 -14 -15 -15 -16 -16 -17 -18 -18 -18 -18 -19 -19 -19 -19 -19 -19 -20 -20 -20 -20 -21 -21 -21 -21 -22 -22 -22 -22 -22 -23 -23 -23 -23 -24 -24 -24 -24 -24 -25 -25 -25 -25 -24 -24 -24 -24 -24 -24 -24 -24 -24 -24 -24 -24 -23 -23 -23
-13 -13 -13 -13 -14 -14 -15 -15 -15 -16 -17 -18 -18 -18 -19 -20 -20 -20 -20 -20 -20 -20 -20 -21 -21 -21 -21 -21 -22 -22 -22 -22 -22 -22 -23 -23 -23 -23 -24 -24 -24 -24 -24 -24 -24 -24 -24 -24 -24 -24 -24 -24 -24 -24 -24 -24 -24 -24 -24 -24 -24 -23 -23
-13 -13 -13 -14 -14 -15 -15 -16 -16 -17 -17 -18 -18 -19 -20 -21 -21 -21 -21 -21 -21 -21 -21 -21 -22 -22 -22 -22 -22 -22 -22 -22 -22 -23 -23 -23 -24 -24 -24 -24 -23 -23 -23 -24 -24 -24 -24 -24 -24 -24 -24 -24 -24 -24 -25 -25 -24 -24 -24 -24 -24 -23 -23
-13 -13 -14 -14 -15 -15 -16 -16 -16 -17 -18 -18 -19 -19 -20 -21 -21 -21 -21 -21 -21 -22 -22 -22 -22 -22 -22 -22 -23 -23 -23 -22 -22 -23 -23 -24 -24 -24 -24 -24 -24 -24 -24 -24 -24 -24 -24 -24 -24 -24 -24 -24 -24 -25 -25 -24 -24 -24 -24 -24 -24 -24 -24
-14 -14 -14 -15 -16 -16 -16 -16 -17 -17 -18 -19 -19 -19 -20 -21 -21 -21 -21 -21 -22 -22 -22 -22 -22 -22 -23 -23 -23 -23 -23 -22 -23 -23 -24 -24 -24 -24 -25 -25 -25 -25 -25 -24 -24 -24 -24 -24 -24 -24 -24 -24 -24 -24 -24 -24 -24 -24 -24 -24 -24 -24 -24
-14 -15 -15 -16 -16 -16 -17 -17 -17 -18 -18 -19 -19 -19 -20 -21 -22 -22 -22 -22 -22 -21 -21 -22 -22 -22 -22 -22 -23 -23 -23 -23 -23 -23 -24 -24 -24 -24 -25 -25 -24 -24 -24 -24 -24 -24 -24 -24 -24 -24 -24 -24 -23 -23 -23 -23 -23 -23 -24 -24 -24 -24 -24
-15 -15 -16 -16 -16 -17 -17 -17 -17 -18 -19 -19 -19 -20 -21 -21 -21 -21 -21 -21 -21 -21 -21 -21 -21 -21 -22 -22 -22 -22 -22 -23 -23 -23 -24 -24 -24 -25 -25 -24 -24 -23 -23 -23 -23 -23 -23 -23 -23 -23 -23 -22 -22 -22 -23 -23 -23 -23 -24 -24 -24 -24 -24
-16 -16 -16 -16 -17 -17 -17 -17 -17 -18 -19 -19 -20 -20 -21 -21 -21 -21 -21 -21 -21 -21 -22 -22 -22 -22 -22 -21 -21 -22 -22 -22 -23 -24 -24 -24 -25 -25 -25 -24 -23 -23 -23 -23 -23 -23 -23 -23 -23 -23 -22 -22 -23 -23 -23 -23 -23 -24 -24 -24 -24 -24 -24
-16 -16 -17 -17 -17 -17 -18 -17 -18 -18 -19 -19 -20 -20 -21 -21 -22 -21 -21 -21 -21 -22 -22 -22 -22 -22 -21 -21 -21 -22 -22 -22 -22 -23 -23 -24 -24 -25 -25 -24 -23 -23 -23 -23 -23 -23 -23 -23 -23 -23 -23 -23 -23 -23 -23 -23 -23 -24 -24 -24 -24 -25 -25
-16 -17 -17 -17 -17 -17 -18 -18 -18 -18 -19 -20 -20 -20 -21 -21 -22 -21 -21 -21 -21 -22 -23 -23 -23 -22 -21 -21 -22 -22 -22 -22 -22 -22 -23 -23 -24 -24 -24 -23 -23 -23 -23 -23 -23 -23 -23 -23 -23 -23 -23 -23 -23 -23 -23 -23 -23 -24 -24 -24 -24 -25 -25
-17 -17 -17 -17 -17 -18 -18 -18 -18 -19 -19 -20 -20 -20 -21 -21 -21 -21 -21 -21 -22 -23 -24 -24 -23 -23 -22 -22 -22 -23 -22 -22 -22 -22 -22 -23 -23 -23 -23 -22 -23 -23 -23 -23 -23 -23 -23 -23 -23 -23 -23 -23 -23 -23 -23 -24 -24 -24 -24 -24 -25 -25 -25
-17 -18 -18 -18 -18 -18 -18 -18 -18 -19 -19 -20 -20 -20 -21 -21 -21 -21 -22 -22 -22 -23 -24 -24 -23 -23 -23 -22 -22 -22 -22 -22 -22 -22 -22 -22 -22 -22 -22 -22 -23 -23 -23 -23 -24 -24 -24 -24 -24 -24 -24 -24 -24 -24 -24 -24 -25 -25 -25 -25 -25 -25 -26
-18 -18 -18 -18 -18 -18 -18 -18 -18 -19 -20 -20 -20 -20 -21 -21 -21 -21 -22 -23 -23 -24 -24 -24 -24 -24 -24 -24 -23 -22 -22 -22 -22 -22 -22 -22 -22 -22 -23 -23 -23 -23 -24 -24 -24 -24 -24 -25 -25 -25 -25 -25 -25 -25 -25 -25 -25 -25 -25 -26 -26 -26 -26
-18 -18 -18 -18 -18 -18 -18 -18 -19 -19 -20 -20 -20 -21 -21 -21 -21 -21 -22 -23 -24 -24 -24 -24 -24 -24 -24 -24 -23 -22 -22 -22 -22 -22 -22 -22 -23 -23 -23 -23 -24 -24 -24 -24 -25 -25 -25 -25 -25 -25 -25 -26 -25 -25 -26 -25 -25 -25 -25 -25 -26 -26 -26
-19 -19 -19 -18 -18 -18 -18 -19 -19 -19 -20 -20 -21 -21 -21 -21 -21 -21 -22 -23 -24 -24 -24 -24 -24 -24 -23 -23 -23 -23 -23 -23 -23 -23 -23 -23 -23 -24 -24 -24 -24 -24 -25 -25 -25 -25 -25 -25 -25 -25 -25 -25 -25 -25 -25 -26 -26 -26 -26 -26 -25 -26 -26
-19 -19 -19 -19 -19 -19 -19 -19 -19 -19 -20 -21 -21 -21 -21 -22 -22 -22 -22 -23 -23 -23 -24 -23 -23 -23 -23 -23 -23 -24 -24 -24 -24 -23 -23 -23 -24 -24 -24 -24 -24 -25 -25 -25 -25 -25 -25 -25 -25 -25 -26 -26 -26 -26 -26 -26 -26 -26 -26 -26 -26 -26 -26
-19 -19 -19 -19 -19 -20 -20 -20 -20 -20 -20 -21 -21 -22 -22 -22 -22 -22 -22 -23 -23 -23 -23 -23 -23 -24 -24 -24 -24 -24 -24 -24 -24 -24 -24 -24 -24 -24 -24 -24 -24 -25 -25 -25 -25 -25 -25 -25 -26 -26 -26 -26 -26 -26 -27 -27 -27 -27 -27 -27 -27 -27 -27
-19 -19 -19 -20 -20 -20 -20 -20 -20 -20 -20 -21 -22 -22 -22 -22 -22 -22 -22 -22 -23 -23 -23 -23 -24 -24 -24 -24 -24 -24 -24 -24 -24 -24 -24 -24 -24 -24 -24 -24 -25 -25 -25 -25 -25 -26 -26 -26 -26 -26 -27 -27 -27 -27 -27 -28 -28 -28 -28 -28 -28 -29 -28
-20 -20 -20 -20 -21 -21 -21 -21 -20 -20 -21 -22 -22 -22 -22 -22 -22 -22 -22 -22 -23 -23 -23 -23 -24 -24 -24 -24 -24 -24 -24 -24 -24 -24 -24 -24 -24 -24 -25 -25 -25 -25 -25 -26 -26 -26 -26 -26 -27 -27 -27 -28 -28 -28 -28 -28 -29 -29 -29 -29 -29 -29 -29
-20 -20 -20 -21 -21 -21 -21 -21 -21 -21 -22 -22 -23 -23 -22 -22 -22 -22 -22 -22 -23 -23 -23 -24 -24 -24 -24 -24 -24 -24 -24 -25 -25 -25 -25 -25 -25 -25 -25 -25 -26 -26 -26 -26 -26 -27 -27 -28 -28 -28 -28 -29 -29 -29 -29 -30 -30 -30 -30 -30 -30 -30 -29
-20 -21 -21 -22 -22 -22 -22 -22 -22 -22 -23 -23 -23 -23 -22 -22 -22 -22 -22 -23 -23 -24 -24 -24 -24 -24 -25 -25 -25 -25 -25 -25 -25 -25 -25 -25 -26 -26 -26 -26 -26 -27 -27 -27 -28 -28 -28 -29 -29 -29 -29 -29 -30 -30 -30 -31 -31 -31 -31 -31 -31 -30 -30
-21 -21 -22 -23 -23 -22 -23 -23 -23 -23 -23 -23 -23 -23 -23 -22 -22 -22 -22 -23 -23 -24 -24 -24 -24 -25 -25 -25 -25 -25 -25 -26 -26 -26 -26 -27 -27 -27 -27 -27 -27 -28 -28 -28 -29 -29 -29 -30 -30 -30 -30 -30 -30 -31 -31 -32 -32 -32 -32 -32 -32 -31 -30
-21 -22 -22 -22 -22 -22 -22 -23 -23 -23 -23 -23 -23 -23 -23 -23 -23 -23 -23 -23 -23 -24 -24 -24 -25 -25 -25 -26 -26 -26 -26 -26 -27 -27 -27 -27 -28 -28 -28 -28 -28 -29 -29 -29 -30 -30 -30 -30 -30 -31 -31 -31 -31 -32 -32 -32 -32 -32 -32 -32 -32 -31 -31
-21 -21 -22 -22 -22 -22 -23 -23 -23 -23 -23 -23 -23 -23 -24 -24 -24 -24 -24 -24 -25 -25 -25 -25 -25 -25 -25 -26 -26 -26 -26 -27 -27 -27 -28 -28 -28 -28 -29 -29 -29 -30 -30 -30 -30 -31 -31 -31 -31 -31 -32 -32 -32 -33 -33 -33 -33 -33 -33 -33 -33 -32 -31
-20 -21 -21 -22 -22 -22 -23 -23 -23 -23 -24 -24 -24 -24 -24 -25 -25 -25 -25 -25 -25 -26 -26 -26 -26 -26 -26 -26 -26 -27 -27 -27 -28 -28 -28 -28 -29 -29 -29 -30 -30 -30 -31 -31 -31 -31 -31 -32 -32 -32 -33 -33 -33 -33 -34 -34 -34 -34 -34 -34 -33 -33 -32
-21 -21 -22 -22 -22 -23 -23 -23 -24 -24 -24 -24 -24 -25 -26 -26 -26 -26 -26 -25 -25 -26 -26 -26 -26 -27 -27 -27 -27 -27 -28 -28 -28 -29 -29 -29 -29 -30 -30 -30 -30 -31 -31 -32 -32 -32 -32 -32 -33 -33 -33 -34 -34 -34 -34 -34 -34 -34 -34 -33 -33 -33 -33
Height
1464 1465 1465 1466 1467 1467 1468 1468 1468 1468 1468 1468 1467 1467 1466 1465 1465 1464 1463 1463 1463 1462 1461 1460 1460 1459 1460 1460 1459 1459 1458 1457 1457 1456 1456 1455 1454 1453 1452 1452 1451 1446 1441 1440 1442 1442 1441 1440 1439 1437 1436 1435 1434 1433 1431 1430 1428 1426 1425 1424 1423 1422 1422
1459 1460 1460 1461 1462 1462 1463 1463 1463 1463 1463 1463 1462 1462 1461 1460 1460 1459 1459 1458 1458 1457 1457 1455 1455 1454 1455 1455 1454 1453 1453 1453 1452 1452 1451 1450 1450 1448 1448 1448 1446 1443 1440 1437 1437 1438 1437 1436 1436 1434 1434 1433 1431 1429 1428 1427 1425 1423 1421 1420 1418 1418 1417
1453 1454 1455 1456 1457 1457 1458 1458 1458 1458 1458 1457 1457 1457 1456 1455 1455 1454 1454 1454 1453 1453 1452 1451 1450 1449 1450 1450 1449 1448 1448 1447 1447 1447 1446 1445 1445 1444 1443 1443 1442 1440 1437 1434 1432 1433 1433 1432 1432 1431 1430 1429 1427 1425 1424 1422 1421 1419 1418 1416 1414 1413 1412
1448 1449 1450 1451 1452 1452 1453 1453 1453 1453 1452 1452 1452 1451 1451 1450 1450 1449 1449 1448 1448 1448 1447 1446 1445 1445 1445 1445 1444 1443 1442 1442 1442 1442 1441 1440 1440 1439 1438 1438 1438 1436 1434 1432 1429 1428 1429 1428 1428 1427 1426 1425 1423 1422 1420 1418 1417 1415 1413 1412 1410 1409 1408
1443 1444 1445 1446 1447 1447 1448 1448 1448 1447 1447 1447 1447 1446 1446 1445 1445 1444 1443 1443 1443 1443 1442 1441 1440 1440 1440 1439 1439 1438 1437 1437 1437 1437 1437 1436 1435 1434 1434 1433 1433 1432 1431 1429 1426 1424 1424 1424 1423 1422 1422 1421 1420 1418 1417 1415 1413 1412 1410 1408 1407 1405 1403
1438 1439 1440 1441 1442 1442 1442 1442 1442 1442 1442 1442 1441 1441 1440 1440 1439 1439 1438 1438 1437 1437 1436 1436 1435 1434 1435 1434 1433 1433 1432 1432 1432 1432 1432 1431 1430 1430 1429 1428 1427 1427 1426 1425 1422 1421 1420 1419 1419 1418 1417 1417 1417 1415 1413 1411 1409 1408 1407 1405 1403 1401 1400
1433 1434 1436 1436 1437 1437 1437 1437 1437 1437 1437 1436 1436 1436 1435 1434 1434 1433 1433 1432 1432 1431 1431 1430 1429 1429 1429 1429 1428 1427 1427 1427 1427 1426 1426 1426 1426 1425 1424 1423 1422 1422 1421 1420 1418 1417 1416 1415 1415 1415 1414 1413 1413 1411 1409 1408 1405 1404 1404 1403 1401 1399 1398
1429 1430 1431 1431 1432 1432 1432 1432 1431 1431 1431 1431 1431 1431 1430 1429 1429 1428 1427 1427 1426 1425 1425 1424 1423 1423 1423 1423 1422 1422 1422 1422 1422 1422 1421 1421 1421 1420 1419 1418 1417 1417 1416 1415 1414 1412 1411 1411 1410 1410 1410 1409 1409 1407 1405 1405 1403 1400 1400 1400 1399 1397 1395
1425 1425 1426 1426 1427 1427 1427 1426 1426 1426 1426 1426 1426 1426 1425 1424 1424 1423 1422 1421 1420 1420 1419 1417 1417 1417 1417 1417 1417 1417 1417 1416 1417 1416 1415 1415 1416 1415 1414 1413 1412 1412 1411 1410 1409 1407 1407 1406 1406 1406 1406 1405 1405 1403 1402 1401 1400 1398 1396 1396 1395 1394 1393
1420 1420 1421 1422 1422 1421 1421 1421 1421 1421 1422 1421 1421 1420 1419 1419 1418 1417 1416 1416 1415 1414 1413 1412 1411 1411 1412 1412 1412 1411 1411 1411 1411 1411 1410 1410 1410 1410 1409 1408 1407 1406 1406 1405 1404 1402 1402 1402 1401 1401 1402 1401 1400 1400 1399 1398 1396 1394 1393 1393 1391 1390 1390
1415 1416 1416 1417 1417 1416 1416 1415 1416 1417 1417 1416 1416 1415 1414 1412 1411 1411 1410 1410 1409 1408 1407 1406 1405 1405 1406 1406 1405 1405 1405 1405 1405 1405 1405 1404 1405 1404 1403 1402 1401 1401 1401 1400 1398 1397 1397 1396 1395 1396 1397 1397 1396 1396 1395 1394 1393 1392 1390 1390 1388 1386 1386
1411 1411 1412 1412 1411 1411 1410 1410 1411 1412 1411 1411 1411 1410 1409 1407 1406 1405 1404 1403 1402 1401 1401 1400 1399 1398 1398 1398 1398 1399 1399 1399 1399 1399 1399 1399 1398 1398 1398 1397 1396 1395 1395 1394 1393 1392 1391 1391 1391 1391 1392 1392 1392 1392 1391 1390 1390 1388 1387 1386 1385 1383 1382
1406 1406 1407 1406 1406 1405 1405 1406 1407 1407 1406 1406 1406 1406 1405 1404 1403 1401 1400 1399 1397 1395 1395 1395 1394 1393 1391 1390 1391 1392 1392 1392 1392 1393 1393 1392 1392 1392 1392 1392 1391 1391 1390 1389 1387 1386 1385 1386 1387 1386 1386 1387 1387 1387 1387 1386 1385 1384 1383 1382 1381 1380 1379
1402 1402 1402 1401 1401 1400 1400 1401 1402 1401 1401 1400 1400 1401 1401 1400 1399 1398 1396 1395 1394 1392 1390 1390 1389 1388 1387 1386 1385 1385 1385 1385 1386 1386 1386 1386 1386 1385 1385 1386 1386 1386 1386 1385 1383 1381 1379 1380 1381 1380 1381 1382 1383 1382 1382 1381 1380 1379 1379 1377 1376 1375 1375
1396 1396 1396 1396 1396 1395 1394 1395 1396 1396 1395 1395 1396 1396 1396 1395 1394 1393 1391 1390 1389 1388 1386 1385 1384 1383 1382 1382 1381 1379 1379 1379 1380 1380 1379 1379 1379 1379 1379 1379 1379 1379 1379 1379 1378 1377 1375 1376 1376 1375 1376 1377 1378 1377 1376 1376 1375 1375 1374 1373 1372 1371 1370
1391 1391 1391 1391 1390 1389 1389 1390 1391 1391 1390 1391 1391 1391 1391 1390 1388 1387 1385 1384 1383 1382 1381 1380 1379 1378 1377 1377 1376 1375 1374 1374 1374 1374 1373 1372 1372 1372 1373 1372 1372 1373 1373 1373 1372 1371 1371 1371 1372 1372 1372 1373 1373 1372 1372 1372 1371 1371 1371 1369 1367 1365 1365
1386 1386 1386 1386 1385 1384 1384 1384 1386 1386 1386 1386 1386 1386 1386 1384 1383 1381 1380 1378 1377 1376 1375 1374 1373 1373 1372 1370 1370 1370 1370 1371 1371 1369 1367 1366 1366 1367 1366 1365 1366 1367 1368 1368 1367 1367 1366 1367 1367 1368 1369 1369 1369 1369 1369 1368 1366 1366 1366 1365 1363 1361 1361
1381 1381 1381 1380 1380 1380 1379 1379 1381 1381 1381 1381 1382 1382 1381 1379 1378 1376 1374 1373 1372 1371 1369 1368 1367 1367 1366 1364 1363 1364 1365 1366 1367 1365 1363 1362 1362 1361 1360 1359 1360 1361 1362 1362 1363 1362 1362 1362 1363 1363 1364 1364 1364 1364 1365 1364 1362 1362 1363 1361 1359 1358 1357
1376 1375 1376 1376 1375 1375 1375 1374 1375 1377 1377 1377 1377 1377 1376 1374 1372 1370 1369 1368 1367 1365 1364 1362 1361 1361 1360 1359 1358 1359 1359 1361 1361 1360 1359 1358 1358 1356 1355 1355 1356 1356 1357 1357 1357 1357 1357 1357 1358 1358 1358 1358 1358 1359 1359 1359 1358 1358 1358 1357 1355 1355 1354
1371 1371 1371 1371 1371 1370 1370 1370 1370 1371 1372 1372 1372 1372 1371 1369 1367 1365 1364 1363 1361 1360 1358 1357 1356 1355 1354 1354 1354 1355 1355 1356 1357 1356 1355 1354 1353 1351 1351 1351 1351 1351 1352 1352 1352 1352 1352 1352 1352 1353 1353 1353 1354 1354 1354 1354 1354 1354 1353 1352 1351 1350 1349
1367 1366 1366 1366 1366 1366 1365 1365 1365 1366 1367 1366 1366 1366 1366 1364 1362 1360 1360 1358 1356 1355 1353 1352 1351 1350 1349 1349 1350 1350 1351 1352 1352 1352 1351 1350 1348 1346 1347 1347 1347 1346 1346 1347 1346 1346 1347 1347 1347 1347 1348 1348 1349 1348 1348 1348 1348 1348 1348 1347 1346 1345 1344
1362 1362 1361 1361 1361 1361 1361 1360 1360 1361 1361 1361 1361 1361 1360 1358 1357 1356 1355 1353 1351 1350 1348 1347 1346 1345 1344 1344 1345 1346 1347 1347 1348 1348 1347 1346 1344 1343 1343 1343 1342 1342 1342 1342 1342 1342 1341 1342 1342 1342 1342 1343 1343 1343 1343 1343 1343 1343 1342 1341 1341 1340 1339
1358 1357 1356 1356 1356 1356 1356 1356 1356 1356 1356 1356 1355 1355 1354 1353 1352 1352 1351 1348 1346 1345 1344 1343 1342 1340 1340 1340 1340 1341 1342 1343 1343 1343 1342 1342 1341 1339 1338 1339 1339 1338 1338 1338 1338 1338 1337 1337 1337 1337 1337 1337 1338 1338 1337 1337 1337 1337 1337 1336 1334 1334 1333
1354 1353 1352 1351 1351 1351 1351 1351 1351 1351 1350 1350 1350 1349 1349 1348 1347 1347 1346 1344 1341 1340 1339 1338 1338 1337 1337 1337 1337 1338 1338 1339 1338 1338 1338 1338 1336 1333 1333 1334 1335 1335 1335 1335 1334 1334 1333 1333 1333 1333 1333 1333 1333 1332 1331 1331 1330 1329 1329 1329 1327 1326 1325
1349 1348 1347 1347 1346 1346 1347 1346 1346 1345 1345 1345 1344 1343 1343 1342 1341 1341 1340 1338 1337 1336 1335 1334 1334 1334 1334 1334 1333 1334 1333 1333 1332 1332 1332 1333 1331 1329 1329 1330 1330 1331 1331 1330 1330 1330 1329 1329 1329 1329 1328 1327 1327 1326 1325 1324 1322 1321 1321 1321 1319 1318 1317
1345 1344 1343 1342 1342 1342 1342 1341 1341 1340 1340 1339 1338 1338 1337 1337 1336 1335 1334 1333 1331 1330 1330 1329 1329 1329 1329 1329 1328 1328 1328 1327 1327 1326 1327 1327 1327 1326 1325 1326 1326 1326 1326 1325 1325 1325 1324 1324 1324 1323 1322 1321 1320 1320 1319 1318 1316 1315 1314 1314 1312 1310 1308
1341 1340 1338 1337 1338 1337 1337 1336 1335 1334 1334 1334 1333 1332 1331 1331 1330 1330 1329 1327 1326 1325 1325 1324 1324 1324 1324 1324 1323 1323 1323 1322 1322 1322 1322 1322 1322 1322 1321 1321 1321 1321 1321 1320 1320 1320 1319 1319 1318 1317 1316 1316 1315 1314 1314 1313 1311 1310 1309 1308 1307 1305 1302
1336 1335 1334 1333 1333 1332 1332 1331 1330 1330 1330 1329 1328 1327 1326 1326 1325 1325 1324 1322 1321 1321 1321 1320 1320 1319 1319 1319 1318 1318 1318 1317 1317 1317 1317 1317 1317 1317 1317 1317 1317 1316 1316 1315 1315 1315 1314 1313 1313 1312 1311 1311 1309 1308 1308 1307 1306 1304 1303 1303 1302 1300 1297
1332 1331 1330 1329 1329 1328 1327 1325 1325 1325 1325 1323 1322 1321 1320 1320 1320 1320 1319 1318 1318 1318 1316 1315 1315 1314 1313 1313 1313 1313 1312 1312 1312 1312 1312 1312 1312 1312 1312 1312 1311 1311 1311 1310 1310 1310 1309 1308 1308 1307 1306 1305 1303 1302 1301 1301 1300 1299 1298 1298 1297 1295 1293
1327 1327 1326 1325 1324 1323 1322 1320 1320 1320 1319 1318 1317 1316 1315 1315 1315 1315 1314 1314 1314 1313 1311 1310 1309 1308 1307 1307 1307 1307 1307 1307 1307 1307 1306 1306 1307 1307 1307 1306 1306 1306 1306 1305 1305 1304 1304 1303 1302 1302 1301 1299 1297 1296 1295 1295 1294 1294 1293 1293 1292 1290 1289
1323 1323 1322 1320 1318 1317 1317 1315 1315 1314 1313 1312 1313 1313 1312 1312 1311 1311 1311 1310 1308 1306 1305 1303 1303 1303 1301 1301 1301 1301 1301 1301 1301 1301 1301 1301 1301 1301 1301 1301 1300 1300 1300 1300 1300 1299 1298 1298 1297 1296 1296 1294 1292 1291 1290 1289 1289 1289 1288 1287 1287 1285 1284
1320 1319 1318 1318 1316 1315 1313 1312 1311 1309 1308 1308 1308 1308 1307 1307 1306 1306 1306 1305 1303 1301 1299 1298 1298 1297 1296 1295 1295 1295 1295 1295 1296 1296 1296 1296 1296 1295 1295 1295 1295 1295 1295 1295 1294 1294 1293 1293 1292 1291 1290 1288 1287 1286 1285 1285 1284 1284 1283 1283 1282 1281 1280
1316 1315 1314 1313 1312 1311 1310 1308 1306 1305 1304 1303 1302 1301 1300 1299 1299 1299 1300 1299 1298 1296 1294 1294 1292 1291 1291 1290 1289 1289 1289 1289 1289 1289 1289 1290 1290 1289 1289 1289 1289 1290 1290 1289 1289 1288 1288 1287 1286 1285 1284 1283 1282 1281 1280 1280 1280 1279 1279 1278 1277 1276 1276
1312 1311 1310 1308 1306 1305 1304 1302 1301 1299 1297 1296 1295 1294 1294 1293 1293 1292 1292 1292 1291 1289 1288 1288 1287 1286 1285 1284 1283 1283 1283 1283 1283 1284 1284 1284 1284 1284 1284 1284 1284 1284 1284 1284 1283 1283 1282 1281 1281 1280 1279 1278 1277 1276 1276 1275 1275 1274 1274 1274 1273 1272 1271
1306 1305 1304 1302 1300 1299 1298 1296 1295 1293 1291 1290 1289 1289 1289 1288 1287 1285 1285 1285 1284 1283 1282 1282 1281 1280 1279 1279 1278 1278 1278 1278 1277 1278 1278 1278 1278 1278 1279 1278 1278 1278 1278 1278 1278 1277 1276 1276 1276 1275 1274 1273 1272 1272 1271 1270 1270 1270 1270 1269 1269 1268 1267
1300 1299 1298 1297 1295 1294 1292 1291 1289 1287 1286 1285 1285 1285 1284 1283 1281 1280 1279 1278 1278 1277 1276 1276 1276 1275 1274 1273 1272 1272 1272 1272 1272 1272 1272 1273 1273 1273 1273 1273 1273 1273 1273 1272 1272 1272 1271 1271 1271 1270 1270 1269 1268 1267 1267 1266 1266 1265 1265 1265 1264 1264 1263
Wind_Speed
42 40 38 35 34 32 31 31 32 33 33 33 33 32 32 31 30 31 31 30 30 30 31 32 33 33 32 30 30 29 28 28 29 26 20 18 21 23 23 23 23 26 29 28 20 20 25 25 24 25 25 24 23 19 18 18 19 22 26 29 30 31 31
42 40 37 35 34 33 32 32 32 34 34 34 33 32 32 32 32 32 31 31 32 31 32 33 34 34 33 31 31 31 31 30 28 25 19 16 18 20 20 21 22 22 23 25 21 21 27 27 23 24 23 21 21 20 18 18 19 21 23 25 28 30 30
42 40 37 35 34 33 32 32 33 34 35 34 33 33 32 32 33 33 32 32 32 32 32 33 34 35 34 33 32 31 31 29 27 24 22 22 21 20 20 20 20 21 23 26 24 23 26 26 22 21 19 18 19 19 17 18 18 19 20 21 25 29 31
41 39 36 35 34 33 33 33 35 35 35 34 33 33 33 33 33 34 34 33 33 33 33 33 34 35 34 33 32 31 30 29 27 26 27 29 28 25 25 22 20 21 23 25 25 25 24 21 18 18 16 16 18 18 17 17 17 17 18 19 21 25 31
40 38 37 36 34 33 33 34 36 36 35 34 34 34 34 34 34 34 34 34 34 33 34 34 35 36 35 33 32 30 31 31 30 29 29 32 32 30 29 27 24 23 23 24 26 27 27 24 21 20 19 17 17 18 17 17 17 17 18 18 19 24 30
39 38 36 35 34 33 34 35 36 35 34 34 34 34 34 34 35 35 35 34 34 34 35 35 36 36 35 35 34 33 35 34 33 32 32 33 34 34 33 33 31 28 27 27 28 30 32 32 28 25 22 18 17 17 18 17 16 17 18 18 20 22 24
38 37 35 34 34 34 35 36 36 35 34 34 34 34 35 35 35 35 35 35 35 35 35 36 36 36 36 35 35 35 36 34 33 34 34 33 34 35 35 36 36 35 34 33 33 33 35 35 33 28 23 19 16 17 18 17 18 20 18 17 18 18 18
36 36 35 34 34 35 36 36 36 35 34 34 34 34 35 35 35 35 35 35 35 35 36 36 36 36 35 34 34 34 34 33 32 33 34 34 33 34 35 36 36 37 37 37 38 38 37 37 35 28 22 18 16 17 18 17 18 20 18 17 19 18 16
35 35 34 34 34 35 36 37 36 35 34 34 34 34 34 34 34 34 35 34 35 35 36 37 36 35 33 32 32 32 32 32 32 32 33 34 34 34 35 36 37 37 37 37 38 38 38 37 34 28 24 20 17 17 18 16 16 18 18 19 21 20 17
34 34 34 34 35 36 37 36 35 33 32 32 33 33 33 34 33 33 34 34 34 35 36 36 35 34 33 32 33 34 34 34 33 33 34 34 34 35 36 36 37 38 38 38 38 38 38 36 33 31 28 23 18 16 16 15 16 18 18 20 22 20 17
34 34 34 35 36 36 36 35 33 31 31 31 32 32 33 33 33 33 33 33 34 35 36 36 36 36 35 35 35 36 36 35 35 35 35 35 35 36 36 37 38 38 38 39 40 40 38 37 35 35 32 26 20 18 18 18 17 18 18 18 20 20 17
33 34 35 36 36 36 35 34 31 30 30 31 30 30 30 31 32 33 33 34 36 37 37 37 38 38 38 38 38 37 37 36 36 35 35 35 35 35 36 37 38 38 38 38 39 40 40 38 37 37 36 33 29 26 24 23 22 22 22 21 20 20 18
33 35 36 36 35 35 34 32 29 29 30 30 29 28 27 28 29 30 31 32 35 38 39 38 39 39 40 41 41 39 37 38 37 35 35 35 35 35 36 36 37 37 38 38 40 41 42 41 39 39 39 37 34 30 27 27 27 27 26 25 24 24 21
34 35 35 34 33 33 32 30 28 28 29 29 28 27 26 27 29 31 32 33 35 38 40 40 40 40 39 39 39 39 39 39 38 37 36 36 36 36 37 37 37 37 38 39 41 43 44 43 42 41 41 38 36 33 31 31 32 33 32 31 30 29 27
35 34 33 32 31 31 31 29 27 27 28 27 27 26 26 27 29 31 34 35 36 38 39 39 38 39 38 38 38 40 42 42 40 39 39 39 39 38 37 38 39 39 39 40 40 41 41 42 41 41 41 39 38 36 35 34 34 34 33 34 34 31 30
34 32 31 30 30 30 30 28 26 27 27 27 26 25 25 27 29 32 34 36 37 38 39 39 39 39 40 41 41 42 43 42 40 39 39 39 38 37 37 38 38 36 35 36 36 36 36 36 36 35 35 34 33 33 33 33 34 35 36 37 36 34 31
31 30 29 29 29 29 30 28 26 26 27 26 25 25 26 28 31 33 36 37 37 38 39 40 40 40 40 41 41 40 39 36 34 35 37 37 36 36 37 38 36 32 29 30 32 33 33 33 31 30 30 29 29 32 33 33 32 32 31 29 28 26 23
29 29 29 29 28 28 29 29 27 26 26 25 24 24 26 28 31 33 35 36 36 37 37 38 39 39 40 41 40 38 36 31 29 32 34 35 34 36 38 37 33 28 25 25 27 29 30 31 30 30 30 31 32 34 34 32 30 26 25 25 25 23 21
29 29 29 28 28 28 29 30 28 26 25 25 24 24 26 28 30 33 35 35 36 37 37 38 39 39 39 39 36 34 31 27 25 27 29 30 31 34 36 35 31 28 26 25 25 26 28 29 29 30 32 34 35 35 35 35 35 34 33 33 32 28 25
29 29 28 28 28 28 29 30 29 26 24 24 24 24 25 28 30 33 34 34 36 36 35 36 37 37 37 36 32 28 25 23 23 25 27 30 32 34 35 33 32 31 29 28 27 27 28 29 29 31 32 33 34 35 35 35 36 36 36 37 36 33 29
28 29 29 29 29 29 29 29 29 26 24 24 24 24 25 27 30 32 32 34 35 35 35 35 36 37 37 35 31 26 23 23 24 25 27 31 34 35 34 32 33 34 32 31 32 32 31 31 31 31 32 31 32 33 34 35 35 35 36 37 38 37 36
29 30 30 30 29 29 29 29 28 26 25 24 24 24 26 28 30 30 31 33 35 35 35 35 36 36 34 33 30 26 23 23 24 24 26 28 31 32 30 28 30 34 34 34 34 34 34 33 32 32 32 31 31 32 33 33 34 34 36 37 39 40 41
29 30 31 31 30 29 29 29 27 27 26 25 25 25 27 28 28 28 28 31 33 34 32 31 31 32 32 31 30 26 21 21 22 24 25 26 27 29 29 26 26 28 29 29 29 30 31 31 31 31 31 31 31 32 34 35 36 37 38 40 41 43 44
29 30 31 31 30 30 29 29 28 27 27 26 26 27 28 28 27 27 27 29 31 31 29 28 28 29 29 29 27 24 21 21 23 24 25 25 26 28 30 29 27 26 25 25 25 26 28 29 30 31 32 33 34 36 38 39 41 42 43 43 44 45 45
30 31 31 31 31 30 29 29 29 28 27 27 27 28 28 27 27 27 26 27 29 30 29 30 30 30 30 30 29 28 28 28 29 29 29 29 29 30 31 31 30 29 28 28 29 30 32 33 35 35 36 38 39 40 41 42 43 45 45 45 45 46 46
30 31 32 32 31 30 29 29 29 30 29 28 28 28 28 27 27 27 27 28 30 30 31 32 31 30 30 30 30 30 31 31 31 32 32 32 32 33 34 34 33 33 33 34 35 36 37 37 37 37 38 40 40 41 41 42 43 44 44 44 44 45 46
30 30 32 32 31 29 29 29 30 31 30 28 28 27 27 27 27 27 27 28 29 28 26 25 24 24 24 25 26 27 28 29 31 32 32 33 34 35 36 36 36 36 37 37 37 37 37 37 38 38 39 40 41 41 42 42 43 43 43 42 41 41 42
29 30 31 31 30 29 29 30 31 31 30 27 26 27 27 27 27 25 25 24 23 22 21 22 22 24 25 26 27 28 30 31 33 34 34 34 34 35 35 36 37 37 37 38 37 37 38 38 39 40 40 41 42 43 43 43 42 42 40 38 36 36 38
30 30 29 28 29 29 30 31 31 30 29 28 28 29 29 27 23 21 20 20 21 22 24 25 26 28 30 30 30 31 32 33 34 34 35 35 34 35 35 36 37 37 38 38 38 39 39 40 40 40 41 43 44 44 43 42 40 38 36 34 33 34 35
29 28 27 28 29 28 28 29 30 29 29 29 29 29 29 26 22 21 22 23 23 25 28 29 29 31 33 33 32 32 33 34 34 34 34 34 34 35 35 36 36 37 37 37 37 37 37 38 39 40 41 43 43 43 41 39 36 34 32 31 30 31 33
27 26 26 27 29 29 29 30 30 30 31 30 28 26 26 24 23 24 25 25 23 23 26 28 29 31 33 34 34 33 33 33 33 33 33 33 34 34 34 35 35 35 35 34 34 35 36 37 39 40 40 40 40 39 38 36 33 31 29 29 28 29 31
26 25 25 25 27 29 30 29 28 29 30 30 29 28 28 28 28 27 28 28 27 27 29 30 29 30 32 33 34 34 34 33 33 32 32 32 32 33 33 33 32 32 32 33 34 35 36 37 38 37 37 37 36 35 34 32 30 28 27 27 28 29 30
26 26 26 27 28 29 30 31 31 33 35 36 36 36 36 36 36 34 33 33 34 35 36 35 34 34 35 35 36 37 37 35 34 33 32 31 31 31 31 31 31 30 31 32 34 34 35 35 35 34 33 33 33 32 31 30 29 28 27 27 28 29 30
25 25 26 28 29 29 29 30 31 34 36 37 37 38 38 37 37 37 35 32 31 34 35 34 35 37 39 39 39 38 37 35 33 32 31 31 31 31 31 31 31 31 32 32 33 33 33 32 31 31 31 30 30 29 29 28 28 26 26 25 27 28 30
27 26 25 26 28 28 27 27 28 30 32 33 34 33 31 30 30 31 32 30 30 32 34 34 35 38 40 40 39 38 36 34 34 33 32 32 32 32 32 32 32 32 32 32 31 31 30 29 28 28 28 27 27 27 27 27 26 25 25 26 27 29 30
30 29 28 27 27 26 25 25 27 28 28 29 29 26 23 24 27 29 31 32 33 33 33 34 35 37 38 39 39 38 37 36 35 34 34 34 33 33 33 33 33 32 31 30 28 28 27 26 25 25 25 25 25 25 26 26 27 27 28 28 28 29 29
Wind_Direction
252 254 256 259 263 267 271 276 281 283 281 276 273 273 273 273 273 273 274 275 273 272 274 275 277 279 279 278 275 271 267 264 264 264 258 253 259 259 258 258 255 259 269 273 268 268 274 276 277 279 283 286 285 282 281 282 282 284 289 290 291 294 295
250 252 254 258 262 266 271 275 279 281 279 274 271 271 271 272 272 272 273 273 272 272 272 273 275 277 278 277 275 273 271 267 263 261 255 250 254 256 254 254 254 256 265 271 269 270 275 276 275 276 277 277 278 279 280 278 279 282 284 285 290 295 296
249 251 253 257 261 265 270 275 279 280 277 272 271 270 269 270 271 272 273 272 272 272 271 270 272 275 276 276 275 274 272 269 264 261 260 260 259 258 256 253 253 256 261 267 269 272 275 276 273 272 273 273 275 277 277 277 278 279 280 283 288 294 296
247 249 252 256 261 266 271 276 280 279 274 271 270 269 269 270 270 271 273 273 273 271 270 269 269 272 274 274 274 272 270 268 264 263 264 266 266 264 263 259 254 254 258 264 269 271 273 273 271 271 272 274 276 275 274 275 276 277 279 281 282 290 297
246 248 252 257 262 267 273 277 278 276 272 270 269 268 269 270 271 272 273 274 273 272 271 270 270 271 272 272 271 269 268 269 267 265 265 266 268 267 266 264 260 257 257 260 265 269 273 274 273 274 275 275 275 275 274 273 273 275 278 279 281 289 297
245 248 253 258 263 268 273 276 275 272 270 269 268 268 269 270 272 273 274 274 274 274 272 271 272 272 271 271 271 270 270 272 271 269 268 266 268 269 268 266 264 260 259 260 262 266 272 275 274 275 276 275 273 273 275 275 275 277 277 279 284 288 295
245 250 255 259 264 270 273 274 273 270 269 268 267 268 269 271 273 274 275 275 275 275 274 273 272 272 272 272 272 271 272 272 271 270 269 268 268 268 268 267 266 264 263 263 264 265 269 273 275 274 274 274 272 270 272 275 277 280 280 278 281 281 286
247 252 256 260 266 271 273 273 271 269 269 268 267 268 270 271 272 273 274 275 276 276 275 274 273 273 273 273 271 270 270 270 269 268 268 268 267 266 266 267 267 266 265 265 265 267 269 272 273 273 271 271 269 267 269 271 274 278 280 281 281 281 283
248 253 257 263 268 272 273 272 270 269 268 268 268 269 270 271 272 274 275 275 276 276 275 274 274 274 273 272 271 270 269 268 267 266 265 265 265 266 266 266 265 264 264 264 264 266 268 270 269 268 269 268 263 263 267 269 270 272 278 285 285 282 282
250 255 260 266 270 272 272 270 269 268 268 267 268 270 271 272 273 274 275 275 276 276 275 274 274 273 273 273 271 270 268 268 267 266 265 266 266 266 266 266 264 263 262 262 262 263 265 266 265 266 269 268 264 264 267 268 269 273 279 285 285 282 280
253 259 265 269 271 271 270 268 268 269 268 267 268 271 274 277 278 278 277 277 278 277 277 277 277 277 276 274 272 272 271 270 269 268 268 268 267 266 266 265 264 263 263 262 262 263 264 264 265 269 270 268 266 265 265 266 268 273 277 279 280 280 282
258 263 268 270 270 269 267 267 268 268 268 268 269 271 274 277 278 279 281 281 281 281 280 280 281 281 280 278 276 275 274 273 271 270 269 268 267 266 265 265 265 266 266 266 265 266 265 265 267 272 273 272 272 270 269 269 268 269 272 271 270 272 277
262 266 269 269 268 267 266 267 268 268 268 269 271 273 272 269 267 268 270 273 275 278 279 278 279 279 280 281 280 278 276 275 274 272 270 268 266 264 262 262 264 265 265 267 269 270 269 270 270 271 272 274 274 272 269 267 268 270 271 269 268 271 274
266 268 269 267 266 265 266 267 269 268 268 269 272 273 270 265 263 262 263 264 265 268 272 275 276 276 275 276 278 278 277 277 277 275 272 269 267 264 261 260 259 260 259 260 263 265 267 270 271 270 271 273 273 271 270 270 273 276 275 273 274 276 275
267 267 266 265 265 266 267 269 270 270 270 271 273 274 270 266 264 263 265 266 265 266 268 270 271 272 271 269 269 271 274 277 277 275 272 270 269 267 265 261 260 261 261 261 261 260 261 263 265 266 268 271 272 272 273 274 275 277 276 275 274 273 272
267 267 266 266 266 267 268 271 272 272 272 273 273 272 269 265 263 263 265 266 267 269 270 268 267 268 269 268 268 268 271 275 277 276 274 273 272 270 268 266 266 266 266 266 265 263 263 263 263 265 267 269 270 272 274 275 274 273 273 272 271 271 271
268 267 267 266 266 268 271 274 274 272 272 272 270 269 266 265 265 266 268 269 271 273 273 273 272 272 272 272 271 270 271 272 273 273 273 273 272 272 271 271 273 271 265 260 260 261 264 265 265 265 266 266 269 272 274 273 270 269 268 265 265 267 267
267 266 266 268 269 271 273 275 274 271 270 269 267 266 265 266 267 269 270 273 275 275 274 275 276 276 276 276 276 276 275 272 269 267 266 266 266 266 268 272 276 275 267 259 255 255 257 259 259 260 261 261 262 264 265 264 263 264 263 261 262 265 267
267 267 269 271 272 273 273 274 274 271 269 268 266 264 264 265 267 269 272 274 276 275 274 275 276 278 278 278 279 279 276 270 266 265 264 263 261 259 263 271 276 275 272 267 262 259 257 257 256 255 255 256 257 259 260 261 263 265 267 268 270 270 271
269 270 272 273 273 273 272 273 274 272 269 268 265 264 264 265 267 271 274 276 277 276 274 275 278 280 280 281 282 280 273 264 260 261 263 264 261 259 263 270 274 275 275 273 270 267 265 262 259 256 255 255 257 259 260 261 263 265 267 270 272 272 271
271 272 273 273 273 273 273 273 274 274 271 268 267 265 265 265 268 272 275 276 276 274 272 272 274 276 278 280 280 275 267 259 257 258 260 261 263 265 270 274 274 274 275 274 272 271 269 266 263 261 259 259 260 262 262 263 265 266 267 268 270 272 271
272 272 273 273 274 274 275 274 275 275 272 270 268 268 267 267 270 274 275 275 274 273 271 272 274 277 279 280 279 275 268 261 259 258 257 259 264 270 273 272 268 266 267 268 267 266 265 264 263 262 262 262 263 264 264 265 265 265 266 267 267 268 269
272 272 274 275 276 277 277 276 276 276 275 272 271 271 270 270 273 275 272 269 270 270 269 269 272 276 277 278 280 281 274 263 259 258 257 259 263 266 265 263 261 261 261 261 260 258 258 259 259 261 263 265 267 268 268 268 268 268 268 269 269 269 269
273 273 275 277 278 278 278 278 278 276 275 275 274 274 274 273 274 274 269 264 264 265 263 262 264 268 271 276 283 286 277 266 261 257 255 257 260 260 260 261 264 265 262 258 255 254 255 258 261 264 267 269 271 272 273 274 274 274 273 273 273 272 272
275 275 277 279 279 279 279 279 279 278 277 277 277 276 277 277 276 274 270 264 262 261 260 262 265 267 269 272 275 273 268 263 259 254 251 251 255 258 261 263 265 265 264 261 261 262 265 267 270 272 273 275 276 277 278 279 279 279 279 278 277 277 275
277 277 279 280 280 281 281 281 280 279 278 279 279 279 278 277 275 275 274 272 269 268 268 269 269 268 267 266 265 264 263 262 260 256 254 254 255 259 262 264 266 267 268 269 270 271 273 273 275 276 277 278 279 279 280 280 280 281 282 281 282 281 279
277 278 279 280 281 282 282 281 280 280 281 283 282 280 277 276 276 277 277 276 275 274 274 272 271 268 265 263 262 260 259 259 259 258 257 256 257 259 261 264 266 268 269 271 272 273 274 275 276 277 278 279 280 279 280 280 281 282 282 282 283 282 280
277 278 278 280 282 282 281 280 280 282 284 284 281 278 277 279 281 281 278 275 275 276 276 273 271 269 266 264 262 261 259 258 259 260 260 260 260 261 262 264 266 267 269 271 272 273 274 275 276 277 278 279 280 280 281 282 282 283 282 282 281 279 278
278 279 280 280 280 280 281 282 282 284 286 285 285 285 287 289 289 284 277 274 275 277 278 274 270 268 266 264 263 262 262 262 262 262 263 263 263 263 263 264 264 265 267 268 269 271 273 274 275 276 277 279 281 282 283 283 283 282 281 279 277 275 275
279 281 281 280 280 280 281 283 284 286 288 288 286 287 291 294 293 287 283 282 280 277 274 271 268 266 264 263 261 261 262 262 262 263 264 264 264 264 264 264 264 265 266 267 269 270 271 272 273 275 277 280 281 282 282 282 281 281 279 277 275 273 273
281 283 284 286 288 291 293 293 293 292 291 289 285 284 286 285 281 277 278 280 279 272 268 266 263 261 260 261 261 261 261 261 262 262 263 264 264 264 264 264 265 266 268 268 269 270 270 272 274 276 278 279 279 279 280 280 281 281 279 276 274 273 272
284 284 282 279 279 281 284 285 285 283 282 282 280 278 275 270 266 264 263 263 264 264 264 265 263 258 257 259 262 263 265 265 266 265 264 263 263 264 264 265 265 266 267 268 269 270 272 274 277 278 278 277 277 277 278 278 279 278 276 275 275 274 273
283 282 279 274 271 269 268 268 268 268 270 271 271 271 270 269 270 270 268 265 265 265 265 266 265 263 262 263 266 268 270 270 269 268 266 264 263 263 265 266 266 266 267 268 270 273 275 277 277 277 276 275 275 276 276 277 276 275 274 274 274 273 274
284 283 281 280 279 276 274 272 270 269 270 270 270 271 272 274 275 275 273 270 265 262 262 261 261 262 264 266 267 269 270 269 268 267 266 265 265 266 266 268 269 269 269 271 273 275 276 276 275 274 273 273 274 275 276 277 277 276 274 271 271 272 274
294 292 289 286 285 284 283 280 276 273 272 272 273 274 277 278 276 273 270 266 260 258 257 257 258 260 263 266 268 268 268 268 268 267 266 266 266 267 268 269 270 271 272 273 274 275 274 274 273 272 272 273 274 275 275 276 275 273 271 270 271 273 275
300 299 297 295 293 291 290 286 281 278 276 276 276 278 277 273 269 267 267 268 267 266 264 262 262 263 264 266 267 268 268 267 267 266 266 266 267 268 269 270 271 272 272 273 272 272 272 272 272 271 272 273 274 275 275 275 275 274 273 273 274 276 276